Time,TemperatureF,DewpointF,PressureIn,WindDirection,WindDirectionDegrees,WindSpeedMPH,WindSpeedGustMPH,Humidity,HourlyPrecipIn,Conditions,Clouds,dailyrainin,SoftwareType,DateUTC
2013-01-05 15:51:00,39.0,20.5,30.22,NNW,335,5.0,5.0,47,0.00,,,0.00,Wunderground v.1.15,2013-01-05 20:51:00,
2013-01-05 15:52:00,39.0,20.5,30.22,NNW,345,4.0,6.0,47,0.00,,,0.00,Wunderground v.1.15,2013-01-05 20:52:00,
2013-01-05 15:56:00,38.9,19.9,30.22,NNW,342,2.0,6.0,46,0.00,,,0.00,Wunderground v.1.15,2013-01-05 20:56:00,
2013-01-05 15:57:00,38.9,19.9,30.22,NNW,342,1.0,6.0,46,0.00,,,0.00,Wunderground v.1.15,2013-01-05 20:57:00,
2013-01-05 16:01:00,38.9,20.4,30.23,NNW,347,2.0,3.0,47,0.00,,,0.00,Wunderground v.1.15,2013-01-05 21:01:00,
2013-01-05 16:02:00,38.9,20.4,30.23,NNW,343,1.0,3.0,47,0.00,,,0.00,Wunderground v.1.15,2013-01-05 21:02:00,
2013-01-05 16:03:00,38.8,20.3,30.23,North,353,6.0,6.0,47,0.00,,,0.00,Wunderground v.1.15,2013-01-05 21:03:00,
2013-01-05 16:07:00,38.6,20.1,30.23,NNW,329,3.0,6.0,47,0.00,,,0.00,Wunderground v.1.15,2013-01-05 21:07:00,
2013-01-05 16:08:00,38.5,20.0,30.23,NW,323,2.0,6.0,47,0.00,,,0.00,Wunderground v.1.15,2013-01-05 21:08:00,
2013-01-05 16:12:00,38.0,20.0,30.23,NNW,340,4.0,7.0,48,0.00,,,0.00,Wunderground v.1.15,2013-01-05 21:12:00,
2013-01-05 16:13:00,37.9,19.9,30.23,NNW,348,1.0,7.0,48,0.00,,,0.00,Wunderground v.1.15,2013-01-05 21:13:00,
2013-01-05 16:17:00,37.5,19.6,30.23,North,350,1.0,7.0,48,0.00,,,0.00,Wunderground v.1.15,2013-01-05 21:17:00,
2013-01-05 16:18:00,37.4,19.5,30.23,NNW,330,0.0,7.0,48,0.00,,,0.00,Wunderground v.1.15,2013-01-05 21:18:00,
2013-01-05 16:22:00,37.1,19.2,30.24,WNW,297,3.0,4.0,48,0.00,,,0.00,Wunderground v.1.15,2013-01-05 21:22:00,
2013-01-05 16:23:00,37.0,19.1,30.24,NW,320,2.0,4.0,48,0.00,,,0.00,Wunderground v.1.15,2013-01-05 21:23:00,
2013-01-05 16:27:00,36.6,19.2,30.24,NW,321,0.0,4.0,49,0.00,,,0.00,Wunderground v.1.15,2013-01-05 21:27:00,
2013-01-05 16:28:00,36.5,19.1,30.24,NW,322,0.0,4.0,49,0.00,,,0.00,Wunderground v.1.15,2013-01-05 21:28:00,
2013-01-05 16:32:00,36.0,18.7,30.24,NW,326,2.0,3.0,49,0.00,,,0.00,Wunderground v.1.15,2013-01-05 21:32:00,
2013-01-05 16:33:00,35.8,19.0,30.23,NNW,333,1.0,3.0,50,0.00,,,0.00,Wunderground v.1.15,2013-01-05 21:33:00,
2013-01-05 16:37:00,35.3,19.0,30.23,NW,326,1.0,5.0,51,0.00,,,0.00,Wunderground v.1.15,2013-01-05 21:37:00,
2013-01-05 16:38:00,35.2,18.9,30.23,NNW,327,1.0,5.0,51,0.00,,,0.00,Wunderground v.1.15,2013-01-05 21:38:00,
2013-01-05 16:42:00,34.7,18.9,30.23,NW,310,0.0,2.0,52,0.00,,,0.00,Wunderground v.1.15,2013-01-05 21:42:00,
2013-01-05 16:43:00,34.6,18.8,30.23,WNW,295,0.0,2.0,52,0.00,,,0.00,Wunderground v.1.15,2013-01-05 21:43:00,
2013-01-05 16:47:00,34.2,18.8,30.23,WSW,246,0.0,2.0,53,0.00,,,0.00,Wunderground v.1.15,2013-01-05 21:47:00,
2013-01-05 16:48:00,34.2,18.8,30.23,WSW,244,0.0,2.0,53,0.00,,,0.00,Wunderground v.1.15,2013-01-05 21:48:00,
2013-01-05 16:53:00,33.8,18.9,30.23,NW,311,0.0,4.0,54,0.00,,,0.00,Wunderground v.1.15,2013-01-05 21:53:00,
2013-01-05 16:58:00,33.4,18.9,30.23,NNW,335,2.0,4.0,55,0.00,,,0.00,Wunderground v.1.15,2013-01-05 21:58:00,
2013-01-05 16:59:00,33.3,18.9,30.23,NNW,337,2.0,4.0,55,0.00,,,0.00,Wunderground v.1.15,2013-01-05 21:59:00,
2013-01-05 17:03:00,33.1,19.1,30.23,NNW,328,2.0,3.0,56,0.00,,,0.00,Wunderground v.1.15,2013-01-05 22:03:00,
2013-01-05 17:04:00,33.0,19.4,30.23,NNW,328,1.0,3.0,57,0.00,,,0.00,Wunderground v.1.15,2013-01-05 22:04:00,
2013-01-05 17:08:00,32.8,19.2,30.23,NW,316,0.0,5.0,57,0.00,,,0.00,Wunderground v.1.15,2013-01-05 22:08:00,
2013-01-05 17:09:00,32.8,19.2,30.24,NW,316,0.0,5.0,57,0.00,,,0.00,Wunderground v.1.15,2013-01-05 22:09:00,
2013-01-05 17:13:00,32.8,18.8,30.24,West,277,0.0,2.0,56,0.00,,,0.00,Wunderground v.1.15,2013-01-05 22:13:00,
2013-01-05 17:14:00,32.8,18.8,30.24,WNW,302,1.0,2.0,56,0.00,,,0.00,Wunderground v.1.15,2013-01-05 22:14:00,
2013-01-05 17:18:00,32.7,19.1,30.24,NNW,339,2.0,4.0,57,0.00,,,0.00,Wunderground v.1.15,2013-01-05 22:18:00,
2013-01-05 17:19:00,32.7,19.1,30.24,NNW,328,1.0,4.0,57,0.00,,,0.00,Wunderground v.1.15,2013-01-05 22:19:00,
2013-01-05 17:24:00,32.6,19.0,30.24,NNW,328,2.0,5.0,57,0.00,,,0.00,Wunderground v.1.15,2013-01-05 22:24:00,
2013-01-05 17:25:00,32.6,19.0,30.24,NNW,336,2.0,5.0,57,0.00,,,0.00,Wunderground v.1.15,2013-01-05 22:25:00,
2013-01-05 17:29:00,32.3,18.8,30.25,NW,318,0.0,5.0,57,0.00,,,0.00,Wunderground v.1.15,2013-01-05 22:29:00,
2013-01-05 17:30:00,32.3,18.8,30.25,WNW,285,1.0,5.0,57,0.00,,,0.00,Wunderground v.1.15,2013-01-05 22:30:00,
2013-01-05 17:34:00,32.1,19.0,30.25,WSW,255,0.0,3.0,58,0.00,,,0.00,Wunderground v.1.15,2013-01-05 22:34:00,
2013-01-05 17:35:00,32.0,18.9,30.25,West,277,1.0,3.0,58,0.00,,,0.00,Wunderground v.1.15,2013-01-05 22:35:00,
2013-01-05 17:39:00,31.9,18.8,30.25,NW,318,1.0,3.0,58,0.00,,,0.00,Wunderground v.1.15,2013-01-05 22:39:00,
2013-01-05 17:40:00,31.9,18.8,30.25,NW,316,2.0,3.0,58,0.00,,,0.00,Wunderground v.1.15,2013-01-05 22:40:00,
2013-01-05 17:41:00,31.8,18.7,30.25,NW,320,1.0,3.0,58,0.00,,,0.00,Wunderground v.1.15,2013-01-05 22:41:00,
2013-01-05 17:44:00,31.8,18.7,30.25,NNW,328,2.0,3.0,58,0.00,,,0.00,Wunderground v.1.15,2013-01-05 22:44:00,
2013-01-05 17:45:00,31.8,18.7,30.25,NNW,330,0.0,3.0,58,0.00,,,0.00,Wunderground v.1.15,2013-01-05 22:45:00,
2013-01-05 17:46:00,31.7,18.6,30.25,NNW,333,4.0,4.0,58,0.00,,,0.00,Wunderground v.1.15,2013-01-05 22:46:00,
2013-01-05 17:49:00,31.7,18.6,30.25,NW,324,0.0,5.0,58,0.00,,,0.00,Wunderground v.1.15,2013-01-05 22:49:00,
2013-01-05 17:50:00,31.7,18.6,30.25,NNW,343,1.0,5.0,58,0.00,,,0.00,Wunderground v.1.15,2013-01-05 22:50:00,
2013-01-05 17:51:00,31.7,18.6,30.26,NW,323,0.0,2.0,58,0.00,,,0.00,Wunderground v.1.15,2013-01-05 22:51:00,
2013-01-05 17:54:00,31.7,18.6,30.25,WNW,300,0.0,2.0,58,0.00,,,0.00,Wunderground v.1.15,2013-01-05 22:54:00,
2013-01-05 17:55:00,31.6,18.5,30.25,WNW,300,0.0,2.0,58,0.00,,,0.00,Wunderground v.1.15,2013-01-05 22:55:00,
2013-01-05 17:56:00,31.6,18.5,30.25,WNW,300,0.0,2.0,58,0.00,,,0.00,Wunderground v.1.15,2013-01-05 22:56:00,
2013-01-05 18:00:00,31.5,18.4,30.26,NNW,340,3.0,3.0,58,0.00,,,0.00,Wunderground v.1.15,2013-01-05 23:00:00,
2013-01-05 18:01:00,31.4,18.3,30.26,NNW,335,1.0,1.0,58,0.00,,,0.00,Wunderground v.1.15,2013-01-05 23:01:00,
2013-01-05 18:05:00,31.2,18.5,30.26,NNW,332,0.0,3.0,59,0.00,,,0.00,Wunderground v.1.15,2013-01-05 23:05:00,
2013-01-05 18:06:00,31.1,18.4,30.26,NNW,330,0.0,3.0,59,0.00,,,0.00,Wunderground v.1.15,2013-01-05 23:06:00,
2013-01-05 18:10:00,30.9,18.2,30.26,WNW,298,0.0,3.0,59,0.00,,,0.00,Wunderground v.1.15,2013-01-05 23:10:00,
2013-01-05 18:11:00,30.9,18.6,30.26,NW,308,0.0,1.0,60,0.00,,,0.00,Wunderground v.1.15,2013-01-05 23:11:00,
2013-01-05 18:12:00,30.9,18.6,30.26,NW,308,0.0,1.0,60,0.00,,,0.00,Wunderground v.1.15,2013-01-05 23:12:00,
2013-01-05 18:15:00,30.9,18.2,30.27,NNW,327,1.0,2.0,59,0.00,,,0.00,Wunderground v.1.15,2013-01-05 23:15:00,
2013-01-05 18:16:00,30.9,18.2,30.26,NW,316,1.0,2.0,59,0.00,,,0.00,Wunderground v.1.15,2013-01-05 23:16:00,
2013-01-05 18:17:00,30.9,18.2,30.27,NNW,328,1.0,2.0,59,0.00,,,0.00,Wunderground v.1.15,2013-01-05 23:17:00,
2013-01-05 18:20:00,30.9,18.2,30.27,NW,311,0.0,3.0,59,0.00,,,0.00,Wunderground v.1.15,2013-01-05 23:20:00,
2013-01-05 18:22:00,30.9,18.6,30.27,NNE,18,1.0,4.0,60,0.00,,,0.00,Wunderground v.1.15,2013-01-05 23:22:00,
2013-01-05 18:25:00,30.8,18.5,30.27,NNW,333,3.0,5.0,60,0.00,,,0.00,Wunderground v.1.15,2013-01-05 23:25:00,
2013-01-05 18:26:00,30.8,18.5,30.27,NW,326,2.0,5.0,60,0.00,,,0.00,Wunderground v.1.15,2013-01-05 23:26:00,
2013-01-05 18:27:00,30.8,18.5,30.27,NNW,328,2.0,5.0,60,0.00,,,0.00,Wunderground v.1.15,2013-01-05 23:27:00,
2013-01-05 18:28:00,30.8,18.5,30.27,NW,325,2.0,5.0,60,0.00,,,0.00,Wunderground v.1.15,2013-01-05 23:28:00,
2013-01-05 18:30:00,30.8,18.1,30.27,NNW,330,1.0,1.0,59,0.00,,,0.00,Wunderground v.1.15,2013-01-05 23:30:00,
2013-01-05 18:31:00,30.8,18.1,30.27,North,10,1.0,3.0,59,0.00,,,0.00,Wunderground v.1.15,2013-01-05 23:31:00,
2013-01-05 18:32:00,30.7,18.1,30.27,NNW,332,4.0,4.0,59,0.00,,,0.00,Wunderground v.1.15,2013-01-05 23:32:00,
2013-01-05 18:33:00,30.8,18.1,30.27,NW,319,3.0,4.0,59,0.00,,,0.00,Wunderground v.1.15,2013-01-05 23:33:00,
2013-01-05 18:35:00,30.8,18.1,30.27,North,350,1.0,4.0,59,0.00,,,0.00,Wunderground v.1.15,2013-01-05 23:35:00,
2013-01-05 18:36:00,30.8,18.1,30.28,NW,319,0.0,4.0,59,0.00,,,0.00,Wunderground v.1.15,2013-01-05 23:36:00,
2013-01-05 18:37:00,30.8,18.1,30.28,NW,320,0.0,4.0,59,0.00,,,0.00,Wunderground v.1.15,2013-01-05 23:37:00,
2013-01-05 18:38:00,30.8,18.1,30.28,NNW,345,1.0,4.0,59,0.00,,,0.00,Wunderground v.1.15,2013-01-05 23:38:00,
2013-01-05 18:41:00,30.8,18.1,30.28,NW,322,0.0,1.0,59,0.00,,,0.00,Wunderground v.1.15,2013-01-05 23:41:00,
2013-01-05 18:42:00,30.8,18.1,30.28,NW,323,1.0,1.0,59,0.00,,,0.00,Wunderground v.1.15,2013-01-05 23:42:00,
2013-01-05 18:43:00,30.6,18.0,30.28,NNW,328,0.0,1.0,59,0.00,,,0.00,Wunderground v.1.15,2013-01-05 23:43:00,
2013-01-05 18:46:00,30.5,18.3,30.28,NW,318,3.0,4.0,60,0.00,,,0.00,Wunderground v.1.15,2013-01-05 23:46:00,
2013-01-05 18:47:00,30.5,18.3,30.28,NNW,328,3.0,5.0,60,0.00,,,0.00,Wunderground v.1.15,2013-01-05 23:47:00,
2013-01-05 18:48:00,30.5,18.3,30.28,NNW,331,1.0,5.0,60,0.00,,,0.00,Wunderground v.1.15,2013-01-05 23:48:00,
2013-01-05 18:51:00,30.6,18.3,30.29,NW,323,1.0,2.0,60,0.00,,,0.00,Wunderground v.1.15,2013-01-05 23:51:00,
2013-01-05 18:52:00,30.6,18.3,30.29,NNW,330,0.0,2.0,60,0.00,,,0.00,Wunderground v.1.15,2013-01-05 23:52:00,
2013-01-05 18:53:00,30.6,18.0,30.29,NNW,342,2.0,2.0,59,0.00,,,0.00,Wunderground v.1.15,2013-01-05 23:53:00,
2013-01-05 18:56:00,30.6,18.0,30.29,NNW,345,1.0,4.0,59,0.00,,,0.00,Wunderground v.1.15,2013-01-05 23:56:00,
2013-01-05 18:57:00,30.6,18.0,30.29,NW,325,1.0,4.0,59,0.00,,,0.00,Wunderground v.1.15,2013-01-05 23:57:00,
2013-01-05 18:59:00,30.6,18.0,30.28,NNW,338,3.0,4.0,59,0.00,,,0.00,Wunderground v.1.15,2013-01-05 23:59:00,
2013-01-05 19:01:00,30.6,18.0,30.28,NW,326,2.0,2.0,59,0.00,,,0.00,Wunderground v.1.15,2013-01-06 00:01:00,
2013-01-05 19:02:00,30.6,18.0,30.28,NW,316,1.0,2.0,59,0.00,,,0.00,Wunderground v.1.15,2013-01-06 00:02:00,
2013-01-05 19:04:00,30.5,17.9,30.28,NNW,341,5.0,6.0,59,0.00,,,0.00,Wunderground v.1.15,2013-01-06 00:04:00,
2013-01-05 19:06:00,30.5,17.9,30.29,NNW,332,0.0,6.0,59,0.00,,,0.00,Wunderground v.1.15,2013-01-06 00:06:00,
2013-01-05 19:07:00,30.4,17.8,30.28,NW,316,0.0,6.0,59,0.00,,,0.00,Wunderground v.1.15,2013-01-06 00:07:00,
2013-01-05 19:08:00,30.4,17.8,30.28,NE,53,1.0,6.0,59,0.00,,,0.00,Wunderground v.1.15,2013-01-06 00:08:00,
2013-01-05 19:09:00,30.4,17.8,30.28,NE,53,0.0,6.0,59,0.00,,,0.00,Wunderground v.1.15,2013-01-06 00:09:00,
2013-01-05 19:11:00,30.3,18.1,30.28,NW,326,0.0,4.0,60,0.00,,,0.00,Wunderground v.1.15,2013-01-06 00:11:00,
2013-01-05 19:12:00,30.3,18.1,30.28,NW,326,0.0,4.0,60,0.00,,,0.00,Wunderground v.1.15,2013-01-06 00:12:00,
2013-01-05 19:13:00,30.3,18.1,30.28,NW,326,0.0,4.0,60,0.00,,,0.00,Wunderground v.1.15,2013-01-06 00:13:00,
2013-01-05 19:14:00,30.2,18.0,30.28,NW,326,1.0,4.0,60,0.00,,,0.00,Wunderground v.1.15,2013-01-06 00:14:00,
2013-01-05 19:17:00,30.0,17.8,30.28,NW,320,0.0,4.0,60,0.00,,,0.00,Wunderground v.1.15,2013-01-06 00:17:00,
2013-01-05 19:18:00,30.0,17.8,30.28,NNW,328,2.0,4.0,60,0.00,,,0.00,Wunderground v.1.15,2013-01-06 00:18:00,
2013-01-05 19:19:00,29.9,17.7,30.28,NNW,328,0.0,4.0,60,0.00,,,0.00,Wunderground v.1.15,2013-01-06 00:19:00,
2013-01-05 19:22:00,29.6,17.8,30.28,NW,316,1.0,2.0,61,0.00,,,0.00,Wunderground v.1.15,2013-01-06 00:22:00,
2013-01-05 19:23:00,29.5,17.7,30.28,NW,316,0.0,2.0,61,0.00,,,0.00,Wunderground v.1.15,2013-01-06 00:23:00,
2013-01-05 19:25:00,29.4,17.6,30.28,West,269,0.0,2.0,61,0.00,,,0.00,Wunderground v.1.15,2013-01-06 00:25:00,
2013-01-05 19:27:00,29.3,17.5,30.28,NNE,24,0.0,2.0,61,0.00,,,0.00,Wunderground v.1.15,2013-01-06 00:27:00,
2013-01-05 19:28:00,29.2,17.4,30.28,NNE,25,0.0,2.0,61,0.00,,,0.00,Wunderground v.1.15,2013-01-06 00:28:00,
2013-01-05 19:30:00,29.2,17.4,30.28,WNW,302,0.0,2.0,61,0.00,,,0.00,Wunderground v.1.15,2013-01-06 00:30:00,
2013-01-05 19:32:00,29.1,17.7,30.28,NNW,328,0.0,2.0,62,0.00,,,0.00,Wunderground v.1.15,2013-01-06 00:32:00,
2013-01-05 19:33:00,29.1,17.7,30.28,NNW,328,0.0,2.0,62,0.00,,,0.00,Wunderground v.1.15,2013-01-06 00:33:00,
2013-01-05 19:34:00,29.1,17.7,30.28,NNW,342,2.0,3.0,62,0.00,,,0.00,Wunderground v.1.15,2013-01-06 00:34:00,
2013-01-05 19:35:00,29.2,17.8,30.28,NNW,335,0.0,3.0,62,0.00,,,0.00,Wunderground v.1.15,2013-01-06 00:35:00,
2013-01-05 19:38:00,29.2,17.4,30.27,NNE,22,0.0,3.0,61,0.00,,,0.00,Wunderground v.1.15,2013-01-06 00:38:00,
2013-01-05 19:39:00,29.2,17.4,30.27,East,86,0.0,3.0,61,0.00,,,0.00,Wunderground v.1.15,2013-01-06 00:39:00,
2013-01-05 19:40:00,29.2,17.8,30.27,SE,145,0.0,3.0,62,0.00,,,0.00,Wunderground v.1.15,2013-01-06 00:40:00,
2013-01-05 19:43:00,29.0,17.6,30.27,SE,145,0.0,0.0,62,0.00,,,0.00,Wunderground v.1.15,2013-01-06 00:43:00,
2013-01-05 19:44:00,29.0,17.6,30.27,SE,145,0.0,0.0,62,0.00,,,0.00,Wunderground v.1.15,2013-01-06 00:44:00,
2013-01-05 19:45:00,28.9,17.5,30.27,SE,145,0.0,1.0,62,0.00,,,0.00,Wunderground v.1.15,2013-01-06 00:45:00,
2013-01-05 19:48:00,28.7,17.3,30.27,SE,145,0.0,1.0,62,0.00,,,0.00,Wunderground v.1.15,2013-01-06 00:48:00,
2013-01-05 19:49:00,28.7,17.3,30.28,SE,145,0.0,1.0,62,0.00,,,0.00,Wunderground v.1.15,2013-01-06 00:49:00,
2013-01-05 19:50:00,28.5,17.5,30.28,NW,308,1.0,1.0,63,0.00,,,0.00,Wunderground v.1.15,2013-01-06 00:50:00,
2013-01-05 19:53:00,28.4,17.4,30.28,NW,307,0.0,1.0,63,0.00,,,0.00,Wunderground v.1.15,2013-01-06 00:53:00,
2013-01-05 19:54:00,28.4,17.4,30.28,NW,308,0.0,1.0,63,0.00,,,0.00,Wunderground v.1.15,2013-01-06 00:54:00,
2013-01-05 19:55:00,28.3,17.3,30.28,NW,308,0.0,1.0,63,0.00,,,0.00,Wunderground v.1.15,2013-01-06 00:55:00,
2013-01-05 19:59:00,28.1,17.1,30.28,WSW,250,0.0,1.0,63,0.00,,,0.00,Wunderground v.1.15,2013-01-06 00:59:00,
2013-01-05 20:01:00,27.9,16.9,30.28,WSW,250,0.0,0.0,63,0.00,,,0.00,Wunderground v.1.15,2013-01-06 01:01:00,
2013-01-05 20:04:00,27.6,17.0,30.26,WSW,249,0.0,1.0,64,0.00,,,0.00,Wunderground v.1.15,2013-01-06 01:04:00,
2013-01-05 20:05:00,27.6,17.0,30.26,WSW,249,0.0,1.0,64,0.00,,,0.00,Wunderground v.1.15,2013-01-06 01:05:00,
2013-01-05 20:06:00,27.5,17.3,30.26,WSW,249,0.0,1.0,65,0.00,,,0.00,Wunderground v.1.15,2013-01-06 01:06:00,
2013-01-05 20:09:00,27.3,17.1,30.25,SSE,151,1.0,1.0,65,0.00,,,0.00,Wunderground v.1.15,2013-01-06 01:09:00,
2013-01-05 20:10:00,27.3,17.1,30.25,SSE,151,0.0,1.0,65,0.00,,,0.00,Wunderground v.1.15,2013-01-06 01:10:00,
2013-01-05 20:11:00,27.2,17.0,30.25,SSE,149,0.0,0.0,65,0.00,,,0.00,Wunderground v.1.15,2013-01-06 01:11:00,
2013-01-05 20:14:00,27.1,17.2,30.26,ENE,78,0.0,1.0,66,0.00,,,0.00,Wunderground v.1.15,2013-01-06 01:14:00,
2013-01-05 20:15:00,27.1,17.2,30.26,ENE,78,0.0,1.0,66,0.00,,,0.00,Wunderground v.1.15,2013-01-06 01:15:00,
2013-01-05 20:16:00,27.1,17.2,30.26,ENE,77,0.0,1.0,66,0.00,,,0.00,Wunderground v.1.15,2013-01-06 01:16:00,
2013-01-05 20:19:00,27.1,17.2,30.26,ENE,77,0.0,1.0,66,0.00,,,0.00,Wunderground v.1.15,2013-01-06 01:19:00,
2013-01-05 20:20:00,27.1,17.2,30.26,ENE,77,0.0,1.0,66,0.00,,,0.00,Wunderground v.1.15,2013-01-06 01:20:00,
2013-01-05 20:21:00,27.0,17.1,30.26,ENE,77,0.0,0.0,66,0.00,,,0.00,Wunderground v.1.15,2013-01-06 01:21:00,
2013-01-05 20:24:00,26.7,16.5,30.26,ENE,77,0.0,0.0,65,0.00,,,0.00,Wunderground v.1.15,2013-01-06 01:24:00,
2013-01-05 20:25:00,26.7,16.5,30.26,ENE,77,0.0,0.0,65,0.00,,,0.00,Wunderground v.1.15,2013-01-06 01:25:00,
2013-01-05 20:27:00,26.5,16.7,30.26,ENE,77,0.0,0.0,66,0.00,,,0.00,Wunderground v.1.15,2013-01-06 01:27:00,
2013-01-05 20:29:00,26.3,16.8,30.26,SSE,155,1.0,1.0,67,0.00,,,0.00,Wunderground v.1.15,2013-01-06 01:29:00,
2013-01-05 20:30:00,26.3,16.8,30.26,SSE,155,1.0,1.0,67,0.00,,,0.00,Wunderground v.1.15,2013-01-06 01:30:00,
2013-01-05 20:32:00,26.1,16.6,30.26,SSE,158,1.0,2.0,67,0.00,,,0.00,Wunderground v.1.15,2013-01-06 01:32:00,
2013-01-05 20:34:00,25.8,16.7,30.26,South,186,1.0,2.0,68,0.00,,,0.00,Wunderground v.1.15,2013-01-06 01:34:00,
2013-01-05 20:35:00,25.8,16.7,30.26,South,185,1.0,2.0,68,0.00,,,0.00,Wunderground v.1.15,2013-01-06 01:35:00,
2013-01-05 20:36:00,25.7,16.6,30.26,South,184,1.0,2.0,68,0.00,,,0.00,Wunderground v.1.15,2013-01-06 01:36:00,
2013-01-05 20:37:00,25.5,16.7,30.26,South,186,1.0,2.0,69,0.00,,,0.00,Wunderground v.1.15,2013-01-06 01:37:00,
2013-01-05 20:40:00,25.2,16.5,30.26,South,183,0.0,2.0,69,0.00,,,0.00,Wunderground v.1.15,2013-01-06 01:40:00,
2013-01-05 20:41:00,25.0,16.3,30.26,SSE,168,0.0,1.0,69,0.00,,,0.00,Wunderground v.1.15,2013-01-06 01:41:00,
2013-01-05 20:42:00,25.0,16.6,30.26,SSE,167,0.0,1.0,70,0.00,,,0.00,Wunderground v.1.15,2013-01-06 01:42:00,
2013-01-05 20:45:00,24.9,16.5,30.27,SSE,168,0.0,1.0,70,0.00,,,0.00,Wunderground v.1.15,2013-01-06 01:45:00,
2013-01-05 20:46:00,24.9,16.5,30.27,SSE,167,0.0,1.0,70,0.00,,,0.00,Wunderground v.1.15,2013-01-06 01:46:00,
2013-01-05 20:47:00,24.8,16.4,30.27,SSE,168,0.0,1.0,70,0.00,,,0.00,Wunderground v.1.15,2013-01-06 01:47:00,
2013-01-05 20:50:00,24.8,16.4,30.26,SSE,168,0.0,1.0,70,0.00,,,0.00,Wunderground v.1.15,2013-01-06 01:50:00,
2013-01-05 20:52:00,24.8,16.4,30.26,SSE,167,0.0,0.0,70,0.00,,,0.00,Wunderground v.1.15,2013-01-06 01:52:00,
2013-01-05 20:53:00,24.7,16.3,30.26,SSE,168,0.0,0.0,70,0.00,,,0.00,Wunderground v.1.15,2013-01-06 01:53:00,
2013-01-05 20:55:00,24.5,16.4,30.27,South,169,0.0,0.0,71,0.00,,,0.00,Wunderground v.1.15,2013-01-06 01:55:00,
2013-01-05 20:57:00,24.3,16.6,30.27,WSW,242,0.0,1.0,72,0.00,,,0.00,Wunderground v.1.15,2013-01-06 01:57:00,
2013-01-05 20:58:00,24.2,16.5,30.27,WSW,241,0.0,1.0,72,0.00,,,0.00,Wunderground v.1.15,2013-01-06 01:58:00,
2013-01-05 21:00:00,24.0,16.3,30.27,SSW,210,0.0,0.0,72,0.00,,,0.00,Wunderground v.1.15,2013-01-06 02:00:00,
2013-01-05 21:02:00,23.9,16.2,30.26,SSW,210,0.0,0.0,72,0.00,,,0.00,Wunderground v.1.15,2013-01-06 02:02:00,
2013-01-05 21:03:00,23.8,16.1,30.26,SSW,210,0.0,0.0,72,0.00,,,0.00,Wunderground v.1.15,2013-01-06 02:03:00,
2013-01-05 21:05:00,23.7,16.0,30.26,SSW,210,0.0,0.0,72,0.00,,,0.00,Wunderground v.1.15,2013-01-06 02:05:00,
2013-01-05 21:06:00,23.7,16.0,30.26,SSW,210,0.0,0.0,72,0.00,,,0.00,Wunderground v.1.15,2013-01-06 02:06:00,
2013-01-05 21:07:00,23.6,16.2,30.26,SSW,210,0.0,0.0,73,0.00,,,0.00,Wunderground v.1.15,2013-01-06 02:07:00,
2013-01-05 21:08:00,23.6,16.2,30.26,SSW,210,0.0,0.0,73,0.00,,,0.00,Wunderground v.1.15,2013-01-06 02:08:00,
2013-01-05 21:11:00,23.5,16.1,30.26,SSW,210,0.0,0.0,73,0.00,,,0.00,Wunderground v.1.15,2013-01-06 02:11:00,
2013-01-05 21:12:00,23.4,16.0,30.26,SSW,210,0.0,0.0,73,0.00,,,0.00,Wunderground v.1.15,2013-01-06 02:12:00,
2013-01-05 21:14:00,23.4,16.0,30.27,SSW,210,0.0,0.0,73,0.00,,,0.00,Wunderground v.1.15,2013-01-06 02:14:00,
2013-01-05 21:16:00,23.2,15.8,30.27,SSW,210,0.0,0.0,73,0.00,,,0.00,Wunderground v.1.15,2013-01-06 02:16:00,
2013-01-05 21:17:00,23.1,16.0,30.27,SSW,210,0.0,1.0,74,0.00,,,0.00,Wunderground v.1.15,2013-01-06 02:17:00,
2013-01-05 21:19:00,22.9,15.8,30.27,SSW,210,0.0,1.0,74,0.00,,,0.00,Wunderground v.1.15,2013-01-06 02:19:00,
2013-01-05 21:21:00,22.9,15.8,30.28,SSW,210,0.0,0.0,74,0.00,,,0.00,Wunderground v.1.15,2013-01-06 02:21:00,
2013-01-05 21:23:00,22.8,16.1,30.27,SSW,210,0.0,0.0,75,0.00,,,0.00,Wunderground v.1.15,2013-01-06 02:23:00,
2013-01-05 21:24:00,22.8,15.8,30.27,SSW,210,0.0,0.0,74,0.00,,,0.00,Wunderground v.1.15,2013-01-06 02:24:00,
2013-01-05 21:26:00,22.7,16.0,30.27,SSW,210,0.0,0.0,75,0.00,,,0.00,Wunderground v.1.15,2013-01-06 02:26:00,
2013-01-05 21:28:00,22.7,16.0,30.27,SSW,210,0.0,0.0,75,0.00,,,0.00,Wunderground v.1.15,2013-01-06 02:28:00,
2013-01-05 21:30:00,22.7,16.0,30.27,SSW,210,0.0,0.0,75,0.00,,,0.00,Wunderground v.1.15,2013-01-06 02:30:00,
2013-01-05 21:31:00,22.7,16.0,30.27,SSW,210,0.0,1.0,75,0.00,,,0.00,Wunderground v.1.15,2013-01-06 02:31:00,
2013-01-05 21:32:00,22.6,15.9,30.27,SSW,210,0.0,1.0,75,0.00,,,0.00,Wunderground v.1.15,2013-01-06 02:32:00,
2013-01-05 21:33:00,22.6,15.9,30.27,SSW,210,1.0,1.0,75,0.00,,,0.00,Wunderground v.1.15,2013-01-06 02:33:00,
2013-01-05 21:35:00,22.7,16.0,30.27,SSW,210,0.0,1.0,75,0.00,,,0.00,Wunderground v.1.15,2013-01-06 02:35:00,
2013-01-05 21:36:00,22.7,16.3,30.27,SSW,210,0.0,1.0,76,0.00,,,0.00,Wunderground v.1.15,2013-01-06 02:36:00,
2013-01-05 21:37:00,22.7,16.3,30.27,SSW,210,0.0,1.0,76,0.00,,,0.00,Wunderground v.1.15,2013-01-06 02:37:00,
2013-01-05 21:38:00,22.8,16.4,30.27,SSW,210,0.0,1.0,76,0.00,,,0.00,Wunderground v.1.15,2013-01-06 02:38:00,
2013-01-05 21:40:00,22.9,16.5,30.26,SSW,210,0.0,1.0,76,0.00,,,0.00,Wunderground v.1.15,2013-01-06 02:40:00,
2013-01-05 21:41:00,23.0,16.6,30.26,SSW,210,0.0,1.0,76,0.00,,,0.00,Wunderground v.1.15,2013-01-06 02:41:00,
2013-01-05 21:42:00,23.0,16.6,30.26,SSW,210,0.0,1.0,76,0.00,,,0.00,Wunderground v.1.15,2013-01-06 02:42:00,
2013-01-05 21:43:00,23.1,16.7,30.26,SSW,210,0.0,1.0,76,0.00,,,0.00,Wunderground v.1.15,2013-01-06 02:43:00,
2013-01-05 21:45:00,23.2,16.4,30.26,SSW,210,0.0,1.0,75,0.00,,,0.00,Wunderground v.1.15,2013-01-06 02:45:00,
2013-01-05 21:47:00,23.2,16.4,30.25,SSW,210,0.0,1.0,75,0.00,,,0.00,Wunderground v.1.15,2013-01-06 02:47:00,
2013-01-05 21:48:00,23.2,16.4,30.25,SSW,210,0.0,1.0,75,0.00,,,0.00,Wunderground v.1.15,2013-01-06 02:48:00,
2013-01-05 21:50:00,23.2,16.4,30.25,SSW,210,0.0,1.0,75,0.00,,,0.00,Wunderground v.1.15,2013-01-06 02:50:00,
2013-01-05 21:52:00,23.1,16.4,30.26,SSW,210,1.0,1.0,75,0.00,,,0.00,Wunderground v.1.15,2013-01-06 02:52:00,
2013-01-05 21:53:00,23.1,16.4,30.26,SSW,210,1.0,1.0,75,0.00,,,0.00,Wunderground v.1.15,2013-01-06 02:53:00,
2013-01-05 21:55:00,23.0,16.3,30.26,SSW,210,0.0,1.0,75,0.00,,,0.00,Wunderground v.1.15,2013-01-06 02:55:00,
2013-01-05 21:57:00,22.9,16.2,30.26,SSW,210,0.0,1.0,75,0.00,,,0.00,Wunderground v.1.15,2013-01-06 02:57:00,
2013-01-05 21:59:00,22.9,16.2,30.27,SSW,210,0.0,1.0,75,0.00,,,0.00,Wunderground v.1.15,2013-01-06 02:59:00,
2013-01-05 22:00:00,22.9,16.5,30.27,SSW,210,0.0,0.0,76,0.00,,,0.00,Wunderground v.1.15,2013-01-06 03:00:00,
2013-01-05 22:02:00,22.9,16.2,30.27,SSW,210,0.0,0.0,75,0.00,,,0.00,Wunderground v.1.15,2013-01-06 03:02:00,
2013-01-05 22:04:00,22.8,16.1,30.26,SSW,210,0.0,0.0,75,0.00,,,0.00,Wunderground v.1.15,2013-01-06 03:04:00,
2013-01-05 22:05:00,22.7,16.0,30.26,SSW,210,0.0,0.0,75,0.00,,,0.00,Wunderground v.1.15,2013-01-06 03:05:00,
2013-01-05 22:07:00,22.5,15.8,30.26,SSW,210,0.0,0.0,75,0.00,,,0.00,Wunderground v.1.15,2013-01-06 03:07:00,
2013-01-05 22:09:00,22.4,15.7,30.26,SSW,210,1.0,1.0,75,0.00,,,0.00,Wunderground v.1.15,2013-01-06 03:09:00,
2013-01-05 22:11:00,22.3,15.9,30.26,SE,145,1.0,1.0,76,0.00,,,0.00,Wunderground v.1.15,2013-01-06 03:11:00,
2013-01-05 22:13:00,22.4,16.0,30.26,SE,146,0.0,1.0,76,0.00,,,0.00,Wunderground v.1.15,2013-01-06 03:13:00,
2013-01-05 22:14:00,22.4,16.3,30.26,SE,145,0.0,1.0,77,0.00,,,0.00,Wunderground v.1.15,2013-01-06 03:14:00,
2013-01-05 22:16:00,22.6,16.5,30.26,SE,145,0.0,1.0,77,0.00,,,0.00,Wunderground v.1.15,2013-01-06 03:16:00,
2013-01-05 22:18:00,22.6,16.5,30.26,SE,145,0.0,1.0,77,0.00,,,0.00,Wunderground v.1.15,2013-01-06 03:18:00,
2013-01-05 22:19:00,22.6,16.5,30.26,SE,145,0.0,1.0,77,0.00,,,0.00,Wunderground v.1.15,2013-01-06 03:19:00,
2013-01-05 22:21:00,22.6,16.5,30.25,SE,145,0.0,0.0,77,0.00,,,0.00,Wunderground v.1.15,2013-01-06 03:21:00,
2013-01-05 22:23:00,22.6,16.2,30.26,SE,145,0.0,0.0,76,0.00,,,0.00,Wunderground v.1.15,2013-01-06 03:23:00,
2013-01-05 22:24:00,22.6,16.2,30.25,SE,145,0.0,1.0,76,0.00,,,0.00,Wunderground v.1.15,2013-01-06 03:24:00,
2013-01-05 22:26:00,22.5,16.1,30.25,SE,145,0.0,1.0,76,0.00,,,0.00,Wunderground v.1.15,2013-01-06 03:26:00,
2013-01-05 22:28:00,22.4,16.3,30.25,SE,146,0.0,1.0,77,0.00,,,0.00,Wunderground v.1.15,2013-01-06 03:28:00,
2013-01-05 22:29:00,22.4,16.3,30.25,SE,145,0.0,1.0,77,0.00,,,0.00,Wunderground v.1.15,2013-01-06 03:29:00,
2013-01-05 22:31:00,22.3,16.2,30.25,SSE,163,1.0,1.0,77,0.00,,,0.00,Wunderground v.1.15,2013-01-06 03:31:00,
2013-01-05 22:33:00,22.2,16.1,30.25,SSE,162,0.0,1.0,77,0.00,,,0.00,Wunderground v.1.15,2013-01-06 03:33:00,
2013-01-05 22:34:00,22.2,16.1,30.25,SSE,160,0.0,1.0,77,0.00,,,0.00,Wunderground v.1.15,2013-01-06 03:34:00,
2013-01-05 22:35:00,22.1,16.0,30.25,SSE,160,0.0,1.0,77,0.00,,,0.00,Wunderground v.1.15,2013-01-06 03:35:00,
2013-01-05 22:37:00,22.2,16.1,30.25,SSE,155,0.0,1.0,77,0.00,,,0.00,Wunderground v.1.15,2013-01-06 03:37:00,
2013-01-05 22:39:00,22.3,16.2,30.25,SSW,210,0.0,1.0,77,0.00,,,0.00,Wunderground v.1.15,2013-01-06 03:39:00,
2013-01-05 22:40:00,22.4,16.3,30.25,SSW,208,0.0,1.0,77,0.00,,,0.00,Wunderground v.1.15,2013-01-06 03:40:00,
2013-01-05 22:42:00,22.4,16.3,30.24,SSW,209,0.0,0.0,77,0.00,,,0.00,Wunderground v.1.15,2013-01-06 03:42:00,
2013-01-05 22:44:00,22.4,16.3,30.24,NE,55,2.0,2.0,77,0.00,,,0.00,Wunderground v.1.15,2013-01-06 03:44:00,
2013-01-05 22:45:00,22.4,16.3,30.24,ENE,60,1.0,2.0,77,0.00,,,0.00,Wunderground v.1.15,2013-01-06 03:45:00,
2013-01-05 22:47:00,22.3,16.2,30.25,SSE,159,1.0,2.0,77,0.00,,,0.00,Wunderground v.1.15,2013-01-06 03:47:00,
2013-01-05 22:49:00,22.2,16.1,30.24,SSE,160,0.0,2.0,77,0.00,,,0.00,Wunderground v.1.15,2013-01-06 03:49:00,
2013-01-05 22:50:00,22.2,16.1,30.24,SSE,160,0.0,2.0,77,0.00,,,0.00,Wunderground v.1.15,2013-01-06 03:50:00,
2013-01-05 22:52:00,22.2,16.4,30.24,SSE,160,0.0,0.0,78,0.00,,,0.00,Wunderground v.1.15,2013-01-06 03:52:00,
2013-01-05 22:54:00,22.2,16.4,30.24,SSE,160,0.0,0.0,78,0.00,,,0.00,Wunderground v.1.15,2013-01-06 03:54:00,
2013-01-05 22:55:00,22.2,16.4,30.24,SSE,160,0.0,0.0,78,0.00,,,0.00,Wunderground v.1.15,2013-01-06 03:55:00,
2013-01-05 22:57:00,22.3,16.5,30.24,SSE,159,0.0,0.0,78,0.00,,,0.00,Wunderground v.1.15,2013-01-06 03:57:00,
2013-01-05 22:59:00,22.2,16.1,30.24,SSE,159,0.0,0.0,77,0.00,,,0.00,Wunderground v.1.15,2013-01-06 03:59:00,
2013-01-05 23:00:00,22.2,16.1,30.23,SSE,160,0.0,0.0,77,0.00,,,0.00,Wunderground v.1.15,2013-01-06 04:00:00,
2013-01-05 23:02:00,22.1,16.0,30.24,SSE,160,0.0,0.0,77,0.00,,,0.00,Wunderground v.1.15,2013-01-06 04:02:00,
2013-01-05 23:04:00,22.0,15.9,30.24,SSE,159,0.0,0.0,77,0.00,,,0.00,Wunderground v.1.15,2013-01-06 04:04:00,
2013-01-05 23:05:00,22.0,15.9,30.24,SSE,160,0.0,0.0,77,0.00,,,0.00,Wunderground v.1.15,2013-01-06 04:05:00,
2013-01-05 23:07:00,21.8,15.7,30.24,SSE,160,0.0,0.0,77,0.00,,,0.00,Wunderground v.1.15,2013-01-06 04:07:00,
2013-01-05 23:09:00,21.7,15.9,30.23,SSE,160,0.0,0.0,78,0.00,,,0.00,Wunderground v.1.15,2013-01-06 04:09:00,
2013-01-05 23:10:00,21.7,15.9,30.24,SSE,159,0.0,0.0,78,0.00,,,0.00,Wunderground v.1.15,2013-01-06 04:10:00,
2013-01-05 23:12:00,21.7,15.9,30.24,SSE,160,0.0,0.0,78,0.00,,,0.00,Wunderground v.1.15,2013-01-06 04:12:00,
2013-01-05 23:15:00,21.7,15.9,30.23,SSE,160,0.0,0.0,78,0.00,,,0.00,Wunderground v.1.15,2013-01-06 04:15:00,
2013-01-05 23:16:00,21.6,15.8,30.23,SSE,160,0.0,0.0,78,0.00,,,0.00,Wunderground v.1.15,2013-01-06 04:16:00,
2013-01-05 23:18:00,21.6,15.8,30.23,SSE,159,0.0,0.0,78,0.00,,,0.00,Wunderground v.1.15,2013-01-06 04:18:00,
2013-01-05 23:20:00,21.5,16.0,30.23,SSE,160,0.0,0.0,79,0.00,,,0.00,Wunderground v.1.15,2013-01-06 04:20:00,
2013-01-05 23:21:00,21.5,16.0,30.23,SSE,160,0.0,0.0,79,0.00,,,0.00,Wunderground v.1.15,2013-01-06 04:21:00,
2013-01-05 23:23:00,21.4,15.9,30.24,SSE,162,0.0,1.0,79,0.00,,,0.00,Wunderground v.1.15,2013-01-06 04:23:00,
2013-01-05 23:25:00,21.4,15.9,30.24,SSE,162,0.0,1.0,79,0.00,,,0.00,Wunderground v.1.15,2013-01-06 04:25:00,
2013-01-05 23:26:00,21.3,15.8,30.24,SSE,162,0.0,1.0,79,0.00,,,0.00,Wunderground v.1.15,2013-01-06 04:26:00,
2013-01-05 23:29:00,21.4,15.9,30.24,SSE,162,0.0,1.0,79,0.00,,,0.00,Wunderground v.1.15,2013-01-06 04:29:00,
2013-01-05 23:30:00,21.5,16.0,30.24,SSE,149,1.0,1.0,79,0.00,,,0.00,Wunderground v.1.15,2013-01-06 04:30:00,
2013-01-05 23:31:00,21.5,16.3,30.24,SSE,149,1.0,1.0,80,0.00,,,0.00,Wunderground v.1.15,2013-01-06 04:31:00,
2013-01-05 23:34:00,21.8,16.6,30.23,SSE,149,0.0,1.0,80,0.00,,,0.00,Wunderground v.1.15,2013-01-06 04:34:00,
2013-01-05 23:35:00,21.9,16.4,30.23,SSE,149,0.0,1.0,79,0.00,,,0.00,Wunderground v.1.15,2013-01-06 04:35:00,
2013-01-05 23:36:00,21.9,16.4,30.23,SSE,149,0.0,1.0,79,0.00,,,0.00,Wunderground v.1.15,2013-01-06 04:36:00,
2013-01-05 23:39:00,22.0,16.5,30.23,South,177,2.0,2.0,79,0.00,,,0.00,Wunderground v.1.15,2013-01-06 04:39:00,
2013-01-05 23:40:00,22.0,16.5,30.23,South,177,1.0,1.0,79,0.00,,,0.00,Wunderground v.1.15,2013-01-06 04:40:00,
2013-01-05 23:41:00,22.0,16.5,30.23,South,177,0.0,1.0,79,0.00,,,0.00,Wunderground v.1.15,2013-01-06 04:41:00,
2013-01-05 23:44:00,22.2,16.7,30.23,South,177,0.0,1.0,79,0.00,,,0.00,Wunderground v.1.15,2013-01-06 04:44:00,
2013-01-05 23:46:00,22.2,16.7,30.23,SW,219,0.0,1.0,79,0.00,,,0.00,Wunderground v.1.15,2013-01-06 04:46:00,
2013-01-05 23:47:00,22.1,16.6,30.22,SW,219,0.0,1.0,79,0.00,,,0.00,Wunderground v.1.15,2013-01-06 04:47:00,
2013-01-05 23:50:00,22.0,16.5,30.23,SSW,202,1.0,1.0,79,0.00,,,0.00,Wunderground v.1.15,2013-01-06 04:50:00,
2013-01-05 23:51:00,22.0,16.5,30.22,SSW,201,1.0,1.0,79,0.00,,,0.00,Wunderground v.1.15,2013-01-06 04:51:00,
2013-01-05 23:52:00,22.0,16.8,30.22,SSW,202,0.0,1.0,80,0.00,,,0.00,Wunderground v.1.15,2013-01-06 04:52:00,
2013-01-05 23:55:00,22.3,17.1,30.21,SSW,201,0.0,1.0,80,0.00,,,0.00,Wunderground v.1.15,2013-01-06 04:55:00,
2013-01-05 23:56:00,22.3,17.1,30.21,SSW,201,0.0,1.0,80,0.00,,,0.00,Wunderground v.1.15,2013-01-06 04:56:00,
2013-01-05 23:57:00,22.5,17.3,30.21,SSW,201,0.0,1.0,80,0.00,,,0.00,Wunderground v.1.15,2013-01-06 04:57:00,